Met observations

Date (UTC) Wind direction m/s kts. Vis. * Weather * Cloud * Temperature (°C) Dew point (°C) Air pressure (Hp)
29-05 05:59 11 22 VIS 10 km SCT 3000ft 5.8 3.4 1025.9
29-05 05:49 12 24 VIS 10 km SCT 3000ft 5.8 3.1 1026.1
29-05 05:39 11 21 VIS 10 km SCT 3000ft 5.7 3.2 1026.0
29-05 05:29 10 20 VIS 10 km SCT 3000ft 5.6 3.0 1026.0
29-05 05:19 12 23 VIS 10 km SCT 3000ft 5.7 2.9 1026.0
29-05 05:09 11 21 VIS 10 km SCT 3000ft 5.7 2.9 1026.0
29-05 04:59 11 21 VIS 10 km SCT 3000ft 5.7 3.2 1026.0
29-05 04:49 10 19 VIS 10 km SCT 3000ft 5.9 3.1 1026.1
29-05 04:39 10 20 VIS 10 km SCT 3000ft 6.0 3.3 1026.1
29-05 04:29 11 22 VIS 10 km SCT 3000ft 6.2 3.1 1026.1
29-05 04:19 11 22 VIS 10 km SCT 3000ft 6.3 2.8 1026.2
29-05 04:09 10 19 VIS 10 km SCT 3000ft 6.2 2.6 1026.3
29-05 03:59 9 18 VIS 10 km SCT 3000ft 6.3 2.4 1026.3
29-05 03:49 10 19 VIS 10 km SCT 3000ft 6.4 2.5 1026.4
29-05 03:39 10 20 VIS 10 km SCT 3000ft 6.3 2.6 1026.5
29-05 03:29 10 20 VIS 10 km SCT 3000ft 6.4 2.2 1026.6
29-05 03:19 11 21 VIS 10 km SCT 3000ft 6.4 2.0 1026.6
29-05 03:09 11 21 VIS 10 km SCT 3000ft 6.3 2.0 1026.8
29-05 02:59 11 21 VIS 10 km SCT 3000ft 6.4 2.0 1026.7
29-05 02:49 11 21 VIS 10 km SCT 3000ft 6.6 2.7 1026.7
29-05 02:39 11 21 VIS 10 km SCT 3000ft 6.5 2.8 1026.8
29-05 02:29 9 18 VIS 10 km SCT 3000ft 6.6 3.1 1027.0
29-05 02:19 9 17 VIS 10 km SCT 3000ft 6.9 3.3 1027.0
29-05 02:09 9 18 VIS 10 km SCT 3000ft 7.1 4.1 1027.1
29-05 01:59 9 17 VIS 10 km SCT 3000ft 7.2 4.1 1027.2
29-05 01:49 8 16 VIS 10 km SCT 3000ft 7.3 4.7 1027.2
29-05 01:39 8 16 VIS 10 km SCT 3000ft 7.4 4.9 1027.3
29-05 01:29 8 16 VIS 10 km SCT 3000ft 7.6 4.9 1027.3
29-05 01:19 9 17 VIS 10 km SCT 3000ft 7.6 4.6 1027.4
29-05 01:09 8 16 VIS 10 km SCT 3000ft 7.7 4.8 1027.5
29-05 00:59 9 17 VIS 10 km SCT 3000ft 7.7 4.7 1027.5
29-05 00:49 9 18 VIS 10 km SCT 3000ft 7.7 4.8 1027.6
29-05 00:39 8 16 VIS 10 km SCT 3000ft 7.6 4.7 1027.7
29-05 00:29 11 21 VIS 10 km SCT 3000ft 7.7 4.8 1027.8
29-05 00:19 8 16 VIS 10 km SCT 3000ft 7.7 4.5 1028.0
29-05 00:09 10 20 VIS 10 km SCT 3000ft 7.8 4.6 1028.0
28-05 23:59 9 18 VIS 10 km SCT 3000ft 8.0 4.9 1028.0
28-05 23:49 9 17 VIS 10 km SCT 3000ft 8.1 5.0 1028.2
28-05 23:39 9 18 VIS 10 km SCT 3000ft 8.2 5.0 1028.3
28-05 23:29 8 15 VIS 10 km SCT 3000ft 8.0 5.2 1028.4
28-05 23:19 10 19 VIS 10 km SCT 3000ft 8.0 4.5 1028.5
28-05 23:09 9 18 VIS 10 km SCT 3000ft 7.9 4.9 1028.5
28-05 22:59 8 16 VIS 10 km SCT 3000ft 8.1 5.1 1028.5
28-05 22:49 9 17 VIS 10 km SCT 3000ft 8.1 4.9 1028.6
28-05 22:39 9 18 VIS 10 km SCT 3000ft 8.1 4.7 1028.6
28-05 22:29 9 18 VIS 10 km SCT 3000ft 8.2 4.6 1028.7
28-05 22:19 8 16 VIS 10 km SCT 3000ft 8.4 5.1 1029.0
28-05 22:09 8 16 VIS 10 km SCT 3000ft 8.4 5.3 1029.0
28-05 21:59 8 16 VIS 10 km SCT 3000ft 8.2 5.0 1029.1
28-05 21:49 10 20 VIS 10 km SCT 3000ft 8.4 4.8 1029.1
28-05 21:39 8 16 VIS 10 km SCT 3000ft 8.6 4.1 1029.2
28-05 21:29 6 12 VIS 10 km SCT 3000ft 8.6 4.2 1029.2
28-05 21:19 5 10 VIS 10 km SCT 3000ft 8.4 4.0 1029.3
28-05 21:09 7 13 VIS 10 km SCT 3000ft 8.4 4.5 1029.5
28-05 20:59 8 15 VIS 10 km SCT 3000ft 8.5 4.5 1029.5
28-05 20:49 6 12 VIS 10 km SCT 3000ft 8.1 4.6 1029.6
28-05 20:39 5 09 VIS 10 km SCT 3000ft 8.0 4.6 1029.7
28-05 20:29 5 10 VIS 10 km SCT 3000ft 8.0 4.2 1029.8
28-05 20:19 4 08 VIS 10 km SCT 3000ft 7.8 4.3 1030.0
28-05 20:09 7 13 VIS 10 km SCT 3000ft 7.6 4.2 1030.0
28-05 19:59 4 08 VIS 10 km SCT 3000ft 7.6 4.0 1030.1
28-05 19:49 4 07 VIS 10 km SCT 3000ft 7.6 3.8 1030.2
28-05 19:39 5 09 VIS 10 km SCT 3000ft 7.5 3.6 1030.3
28-05 19:29 6 12 VIS 10 km SCT 3000ft 7.6 3.5 1030.4
28-05 19:19 7 13 VIS 10 km SCT 3000ft 7.5 3.5 1030.5
28-05 19:09 7 13 VIS 10 km SCT 3000ft 7.3 3.1 1030.7
28-05 18:59 7 14 VIS 10 km SCT 3000ft 7.4 3.4 1030.6
28-05 18:49 9 17 VIS 10 km FEW 2000ft 7.4 2.7 1030.6
28-05 18:39 10 19 VIS 10 km FEW 2000ft 7.9 2.8 1030.5
28-05 18:29 10 19 VIS 10 km FEW 2000ft 8.1 2.4 1030.4
28-05 18:19 10 19 VIS 10 km FEW 2000ft 8.0 2.8 1030.4
28-05 18:09 9 17 VIS 10 km FEW 2000ft 7.7 2.6 1030.4
28-05 17:59 7 13 VIS 10 km FEW 2000ft 7.8 2.7 1030.3
28-05 17:49 9 17 VIS 10 km FEW 2000ft 7.6 2.5 1030.3
28-05 17:39 8 16 VIS 10 km FEW 2000ft 7.6 2.4 1030.3
28-05 17:29 8 16 VIS 10 km FEW 2000ft 8.6 3.1 1030.2
28-05 17:19 8 16 CAVOK 8.6 2.7 1030.1
28-05 17:09 7 13 CAVOK 8.4 1.6 1030.1
28-05 16:59 6 11 CAVOK 9.0 1.1 1030.0
28-05 16:49 3 06 CAVOK 8.7 0.1 1030.1
28-05 16:39 3 06 CAVOK 8.0 1.0 1030.3
28-05 16:29 4 08 CAVOK 8.1 2.1 1030.4
28-05 16:19 8 15 VIS 10 km FEW 2000ft 7.7 2.1 1030.3
28-05 16:09 8 16 VIS 10 km FEW 2000ft 7.9 2.7 1030.2
28-05 15:59 9 17 VIS 10 km FEW 2000ft 8.2 1.5 1030.1
28-05 15:49 10 19 VIS 10 km FEW 2000ft 7.8 2.0 1030.0
28-05 15:39 10 19 VIS 10 km FEW 2000ft 8.2 2.1 1029.9
28-05 15:29 11 21 VIS 10 km FEW 2000ft 7.8 1.7 1029.8
28-05 15:19 11 22 VIS 10 km FEW 2000ft 7.9 1.6 1029.7
28-05 15:09 12 24 VIS 10 km FEW 2000ft 8.1 2.5 1029.6
28-05 14:59 14 27 VIS 10 km FEW 2000ft 7.8 2.1 1029.4
28-05 14:49 13 26 VIS 10 km FEW 2000ft 7.9 1.9 1029.3
28-05 14:39 13 25 VIS 10 km FEW 2000ft 8.0 1.9 1029.3
28-05 14:29 13 25 VIS 10 km FEW 2000ft 7.7 2.0 1029.3
28-05 14:19 12 23 VIS 10 km FEW 2000ft 7.6 1.6 1029.5
28-05 14:09 12 23 VIS 10 km FEW 2000ft 8.0 1.9 1029.7
28-05 13:59 12 24 VIS 10 km FEW 2000ft 7.7 1.6 1029.8
28-05 13:49 13 25 VIS 10 km FEW 2000ft 7.6 1.6 1029.7
28-05 13:39 12 23 VIS 10 km FBL SHRA FEW 1400ft BKN 1700ft 7.8 1.8 1029.7
28-05 13:29 12 23 VIS 10 km FBL SHRA FEW 1400ft BKN 1700ft 7.3 1.3 1029.8
28-05 13:19 11 21 VIS 10 km FBL SHRA FEW 1400ft BKN 1700ft 7.7 2.0 1029.9
28-05 13:09 10 19 VIS 10 km FBL SHRA FEW 1400ft BKN 1700ft 7.8 2.4 1029.9
28-05 12:59 10 19 VIS 10 km FBL SHRA FEW 1400ft BKN 1700ft 7.4 1.2 1030.0
28-05 12:49 9 17 VIS 10 km FBL SHRA FEW 1400ft BKN 1700ft 7.3 2.3 1030.1
28-05 12:39 7 14 VIS 10 km FBL SHRA FEW 1400ft BKN 1700ft 7.5 2.5 1030.1
28-05 12:29 10 20 VIS 10 km FBL SHRA FEW 1400ft BKN 1700ft 7.6 2.5 1030.1
28-05 12:19 9 17 VIS 10 km FBL SHRA FEW 1400ft BKN 1700ft 7.0 1.9 1030.1
28-05 12:09 8 16 VIS 10 km FBL SHRA FEW 1400ft BKN 1700ft 6.7 3.2 1030.0
28-05 11:59 7 13 VIS 10 km FBL SHRA FEW 1400ft BKN 1700ft 6.4 3.1 1030.2
28-05 11:49 7 14 VIS 10 km FBL SHRA FEW 1400ft BKN 1700ft 6.4 3.2 1030.1
28-05 11:39 9 17 VIS 10 km FBL SHRA FEW 1400ft BKN 1700ft 6.4 2.9 1030.0
28-05 11:29 8 16 VIS 10 km FBL SHRA FEW 1400ft BKN 1700ft 6.4 3.2 1030.0
28-05 11:19 10 19 VIS 10 km FBL SHRA FEW 1400ft BKN 1700ft 6.6 3.5 1029.7
28-05 11:09 10 19 VIS 10 km FBL SHRA FEW 1400ft BKN 1700ft 6.5 2.9 1029.6
28-05 10:59 10 20 VIS 10 km FBL SHRA FEW 1400ft BKN 1700ft 6.4 2.2 1029.5
28-05 10:49 10 19 VIS 10 km FBL SHRA FEW 1400ft BKN 1700ft 6.7 3.1 1029.5
28-05 10:39 9 18 VIS 10 km FBL SHRA FEW 1400ft BKN 1700ft 6.1 2.9 1029.5
28-05 10:29 8 16 VIS 10 km FBL SHRA FEW 1400ft BKN 1700ft 6.0 2.7 1029.5
28-05 10:19 8 15 VIS 10 km FBL SHRA FEW 1400ft BKN 1700ft 6.1 2.8 1029.5
28-05 10:09 8 16 VIS 10 km FBL SHRA FEW 1400ft BKN 1700ft 6.0 2.8 1029.4
28-05 09:59 8 16 VIS 10 km FBL SHRA FEW 1400ft BKN 1700ft 6.1 2.8 1029.3
28-05 09:49 8 15 VIS 10 km FBL SHRA FEW 1400ft BKN 1700ft 5.6 2.6 1029.3
28-05 09:39 8 16 VIS 10 km BKN 3000ft 5.5 2.9 1029.3
28-05 09:29 8 15 VIS 10 km BKN 3000ft 5.5 2.7 1029.3
28-05 09:19 9 17 VIS 10 km BKN 3000ft 5.8 2.1 1029.2
28-05 09:09 9 18 VIS 10 km BKN 3000ft 5.7 2.0 1029.2
28-05 08:59 7 13 VIS 10 km BKN 3000ft 5.6 2.7 1029.3
28-05 08:49 9 17 VIS 10 km BKN 3000ft 5.8 2.5 1029.2
28-05 08:39 9 18 VIS 10 km BKN 3000ft 6.0 2.1 1029.1
28-05 08:29 8 15 VIS 10 km BKN 3000ft 5.8 2.0 1029.0
28-05 08:19 8 16 VIS 10 km BKN 3000ft 5.8 1.5 1029.1
28-05 08:09 7 14 VIS 10 km BKN 3000ft 5.8 1.4 1029.0
28-05 07:59 9 17 VIS 10 km BKN 3000ft 5.8 1.3 1029.0
28-05 07:49 9 17 VIS 10 km BKN 3000ft 5.7 1.5 1028.9
28-05 07:39 9 17 VIS 10 km BKN 3000ft 5.7 2.1 1028.8
28-05 07:29 9 17 VIS 10 km BKN 3000ft 5.7 1.7 1028.8
28-05 07:19 7 14 VIS 10 km BKN 3000ft 5.8 1.4 1028.8
28-05 07:09 9 17 VIS 10 km BKN 3000ft 5.8 1.8 1028.8
28-05 06:59 9 18 VIS 10 km BKN 3000ft 5.6 2.0 1028.6
28-05 06:49 9 18 VIS 10 km BKN 3000ft 5.6 1.7 1028.7
28-05 06:39 9 17 VIS 10 km BKN 3000ft 5.6 2.1 1028.5
28-05 06:29 8 15 VIS 10 km BKN 3000ft 5.5 2.4 1028.3
28-05 06:19 7 14 VIS 10 km BKN 3000ft 5.4 2.2 1028.3

Met data is updated every half hour and is for information only.
* Visibility, weather and cloud values are updated during the airport’s service hours only.
Flight planning documentation is available on opmet.dmi.dk.
For meteorological abbreviations, click here